Miscellaneous Local Product
Issued by NWS Hastings, NE

Home | Current Version | Previous Version | Text Only | Print | Product List | Glossary On
Versions: 1 2 3 4 5 6 7 8 9 10 11 12 13 14 15 16 17 18 19 20 21 22 23 24 25 26 27 28 29 30 31 32 33 34 35 36 37 38 39 40 41 42 43 44 45 46 47 48 49 50
465
AXUS43 KGID 210302
MISGRI

GID CWA HOURLY WEATHER ROUNDUP
NATIONAL WEATHER SERVICE HASTINGS NE
1000 PM CDT THU JUL 20 2017

NOTE: "FAIR" INDICATES FEW OR NO CLOUDS BELOW 12,000 FEET WITH NO
SIGNIFICANT WEATHER AND/OR OBSTRUCTIONS TO VISIBILITY.

...SOUTH CENTRAL NEBRASKA...

CITY           SKY/WX    TMP DP  RH WIND       PRES   REMARKS
GRAND ISLAND   CLEAR     84  79  85 SE10      29.89S HX  96
HASTINGS       CLEAR     86  73  65 SE10      29.90R HX  93
KEARNEY        CLEAR     79  77  94 E6        29.90R
ORD            CLEAR     80  72  76 E5        29.89R
YORK           CLEAR     84  77  79 SE9       29.89S HX  94
AURORA         CLEAR     82  78  87 SE8       29.89S HX  91
LEXINGTON      CLEAR     83  76  79 E8        29.90R HX  91
HOLDREGE       CLEAR     80  76  85 E8        29.90R
HEBRON         CLEAR     87  69  56 S9        29.88S HX  91

...NEBRASKA PANHANDLE...

CITY           SKY/WX    TMP DP  RH WIND       PRES   REMARKS
CHADRON        PTCLDY    80  61  52 SE8       29.89S
ALLIANCE       CLOUDY    80  60  50 SE9       29.94F
SCOTTSBLUFF    PTCLDY    80  60  50 SE8       29.96R
SIDNEY         CLOUDY    79  58  48 SE7       30.02F

...WESTERN AND NORTH CENTRAL NEBRASKA...

CITY           SKY/WX    TMP DP  RH WIND       PRES   REMARKS
VALENTINE      CLEAR     83  62  49 SE7       29.92R
AINSWORTH      CLEAR     79  70  74 SE6       29.93R
ONEILL         CLEAR     80  76  87 E7        29.92R
BROKEN BOW     CLEAR     79  73  82 E7        29.91S
IMPERIAL       CLEAR     84  65  52 W5        29.92R
NORTH PLATTE   CLEAR     81  75  82 E12       29.90S
MCCOOK         CLEAR     86  62  44 SE8       29.87S

...EASTERN NEBRASKA...

CITY           SKY/WX    TMP DP  RH WIND       PRES   REMARKS
NORFOLK        CLEAR     77  67  71 E7        29.90R
SO SIOUX CITY  CLEAR     77  70  79 SE12      29.92R
TEKAMAH        CLEAR     80  69  69 E7        29.89R
COLUMBUS       CLEAR     79  75  87 E8        29.89S
ALBION         CLEAR     81  76  86 E3        29.90R
OMAHA EPPLEY   CLOUDY    89  76  65 E10       29.90R HX 100
OFFUTT AFB     PTCLDY    85  78  78 E9        29.90R HX  97
MILLARD        CLOUDY    90  80  73 E7        29.90R HX 108
LINCOLN        CLEAR     88  71  57 SE10      29.89R HX  94
NEBRASKA CITY  CLEAR     82  77  86 S6        29.91R
BEATRICE       CLEAR     85  74  71 SE7       29.89R HX  92
FALLS CITY     PTCLDY    84  75  74 S6        29.90R HX  92

...NORTHERN KANSAS...

CITY           SKY/WX    TMP DP  RH WIND       PRES   REMARKS
GOODLAND       CLEAR     80  66  62 S8        29.95S
HILL CITY      CLEAR     89  59  36 S8        29.89R
NORTON         CLEAR     88  52  29 SE8       29.88R
PHILLIPSBURG   CLEAR     84  59  42 SE6       29.87R
SMITH CENTER   CLEAR     82  61  47 SE9       29.88R
HAYS           CLEAR     86  61  42 S10       29.90R
RUSSELL        CLEAR     89  60  37 S12       29.89R
CONCORDIA      CLEAR     89  66  46 S17       29.89R HX  91
SALINA         CLEAR     92  65  40 S15       29.90R HX  94
TOPEKA         CLEAR     88  75  65 S13       29.93R HX  97



USA.gov is the U.S. government's official web portal to all federal, state and local government web resources and services.